DW8450 Weather Reports


time (UTC)temp
C
wind
direction
speed
KPH
gust
KPH
rain 1hr
cm
rain 24hr
cm
rain mn
cm
humidity
%
barometer
mb
20260506013056 12 267 4.8 24.1 0.00 0.00 0.00 43 1003.5
20260506011556 13 263 6.4 16.1 0.00 0.00 0.00 41 1002.8
20260506010058 14 238 8.0 16.1 0.00 0.00 0.00 40 1002.5
20260506004555 14 240 9.7 20.9 0.00 0.00 0.00 38 1002.6
20260506003059 15 288 9.7 19.3 0.00 0.00 0.00 35 1002.5
20260506001605 15 244 4.8 16.1 0.00 0.00 0.00 39 1002.5
20260506000054 15 293 8.0 20.9 0.00 0.00 0.00 42 1002.6
20260505234610 15 248 8.0 19.3 0.00 0.00 0.00 43 1002.5
20260505233051 15 281 11.3 19.3 0.00 0.00 0.00 42 1002.5
20260505231551 15 278 12.9 24.1 0.00 0.00 0.00 41 1002.5
20260505230052 14 302 4.8 25.7 0.00 0.00 0.00 43 1002.3
20260505224550 14 259 8.0 20.9 0.00 0.00 0.00 43 1002.1
20260505223103 15 235 8.0 27.4 0.00 0.00 0.00 43 1002.3
20260505221548 15 252 4.8 19.3 0.00 0.00 0.00 41 1002.4
20260505220048 16 267 11.3 24.1 0.00 0.00 0.00 39 1002.5
20260505214555 16 229 8.0 25.7 0.00 0.00 0.00 40 1002.6
20260505213046 16 234 6.4 19.3 0.00 0.00 0.00 40 1002.5
20260505211550 16 233 11.3 24.1 0.00 0.00 0.00 40 1002.9
20260505210044 16 279 12.9 25.7 0.00 0.00 0.00 40 1002.9
20260505204542 15 282 6.4 27.4 0.00 0.00 0.00 42 1002.9
20260505203052 16 261 14.5 27.4 0.00 0.00 0.00 40 1003.3
20260505201540 16 211 8.0 24.1 0.00 0.00 0.00 39 1003.2
20260505200039 15 228 8.0 19.3 0.00 0.00 0.00 41 1003.2
20260505194542 16 226 9.7 17.7 0.00 0.00 0.00 41 1003.3
20260505193035 15 199 4.8 20.9 0.00 0.00 0.00 44 1003.0
20260505191542 15 225 6.4 16.1 0.00 0.00 0.00 39 1003.3
20260505190035 15 188 3.2 16.1 0.00 0.00 0.00 39 1003.3
20260505184543 15 234 4.8 20.9 0.00 0.00 0.00 40 1003.5
20260505183036 14 232 4.8 14.5 0.00 0.00 0.00 41 1003.6
20260505181526 14 255 3.2 14.5 0.00 0.00 0.00 41 1003.4
20260505180024 13 284 3.2 16.1 0.00 0.00 0.00 41 1003.6
20260505174523 14 279 3.2 12.9 0.00 0.00 0.00 39 1003.9
20260505173021 13 256 6.4 16.1 0.00 0.00 0.00 39 1003.8
20260505171519 13 286 3.2 14.5 0.00 0.00 0.00 39 1004.0
20260505170015 12 256 3.2 14.5 0.00 0.00 0.00 41 1004.1
20260505164515 12 283 8.0 17.7 0.00 0.00 0.00 44 1004.4
20260505163011 11 281 8.0 16.1 0.00 0.00 0.00 44 1004.5
20260505161509 11 281 4.8 19.3 0.00 0.00 0.00 44 1004.7
20260505153008 11 292 9.7 19.3 0.00 0.00 0.00 43 1004.7
20260505151507 11 273 11.3 20.9 0.00 0.00 0.00 44 1004.7
20260505124600 8 297 8.0 16.1 0.00 0.00 0.00 45 1004.5
20260505123055 8 286 8.0 16.1 0.00 0.00 0.00 44 1004.5
20260505121550 8 288 4.8 11.3 0.00 0.00 0.00 42 1004.5
20260505120045 9 288 3.2 12.9 0.00 0.00 0.00 41 1004.5
20260505114542 10 291 1.6 11.3 0.00 0.00 0.00 39 1004.1
20260505113043 10 281 4.8 17.7 0.00 0.00 0.00 38 1004.2
20260505111545 10 281 6.4 20.9 0.00 0.00 0.00 39 1004.2
20260505101536 10 273 4.8 16.1 0.00 0.00 0.00 40 1004.0
20260505100035 10 246 4.8 14.5 0.00 0.00 0.00 39 1004.0
20260505094528 11 257 1.6 14.5 0.00 0.00 0.00 39 1004.2
20260505093032 11 251 3.2 14.5 0.00 0.00 0.00 38 1004.5
20260505091523 11 294 1.6 11.3 0.00 0.00 0.00 36 1004.4
20260505090023 11 298 0.0 1.6 0.00 0.00 0.00 34 1004.6
20260505084526 12 298 0.0 11.3 0.00 0.00 0.00 34 1004.8
20260505083016 12 300 4.8 14.5 0.00 0.00 0.00 33 1004.7
20260505081514 12 292 8.0 19.3 0.00 0.00 0.00 32 1005.3
20260505080022 12 276 8.0 19.3 0.00 0.00 0.00 31 1004.9
20260505074510 12 288 8.0 19.3 0.00 0.00 0.00 30 1005.2
20260505073008 12 259 6.4 16.1 0.00 0.00 0.00 30 1005.1
20260505071506 12 278 8.0 17.7 0.00 0.00 0.00 29 1005.0
20260505070008 12 281 6.4 16.1 0.00 0.00 0.00 29 1004.7
20260505064511 13 279 3.2 12.9 0.00 0.00 0.00 30 1005.0
20260505063003 13 278 4.8 20.9 0.00 0.00 0.00 29 1005.1
20260505061628 13 277 3.2 14.5 0.00 0.00 0.00 30 1005.0
20260505060101 13 282 4.8 12.9 0.00 0.00 0.00 30 1005.3
20260505054557 13 280 0.0 6.4 0.00 0.00 0.00 31 1005.1
20260505053056 13 280 1.6 6.4 0.00 0.00 0.00 31 1005.1
20260505051556 12 280 0.0 11.3 0.00 0.00 0.00 31 1004.9
20260505041601 13 280 0.0 6.4 0.00 0.00 0.00 29 1005.2
20260505034556 14 280 0.0 8.0 0.00 0.00 0.00 27 1005.2
20260505033100 15 280 4.8 9.7 0.00 0.00 0.00 26 1005.0
20260505031556 15 281 4.8 14.5 0.00 0.00 0.00 25 1004.9
20260505030052 15 278 8.0 17.7 0.00 0.00 0.00 24 1004.5
20260505024552 16 283 8.0 17.7 0.00 0.00 0.00 23 1004.4
20260505023051 16 288 9.7 22.5 0.00 0.00 0.00 22 1004.1
20260505021551 16 291 9.7 22.5 0.00 0.00 0.00 20 1004.1
20260505020050 17 299 9.7 19.3 0.00 0.00 0.00 18 1003.9
20260505014550 17 288 11.3 22.5 0.00 0.00 0.00 18 1003.6